GFSNGP_con_lsi_102.txt.gz
Lid_Strength_Index
12 10 10 10 10 9 10 10 12 10 12 9 7 6 5 5 4 5 5 5 5 5 5 5 5 5 5 5 4 4 5 4 5 5 5 5 6 7 6 6 6 6 6 6
12 10 9 11 9 9 9 9 10 10 9 6 5 5 5 5 5 5 5 6 6 6 6 5 6 6 6 5 5 5 5 5 5 6 6 6 6 6 6 6 6 6 6 6
13 10 10 12 10 9 9 8 8 11 8 6 7 6 5 5 5 5 6 6 6 6 6 6 6 6 7 6 5 5 6 6 6 6 6 6 6 6 6 6 6 6 6 6
13 12 17 9 7 7 8 7 7 7 7 6 6 5 5 4 5 6 6 6 6 6 6 6 7 7 7 6 6 6 6 7 6 6 6 6 6 6 6 7 7 6 5 5
15 14 11 9 8 9 9 9 7 7 7 6 5 5 6 5 5 6 6 6 6 7 7 7 7 8 8 9 8 8 8 7 6 6 7 6 6 7 6 7 8 6 5 4
12 17 16 11 8 6 6 12 7 6 6 6 6 9 7 5 6 6 6 6 7 7 7 8 8 8 10 10 10 10 8 8 7 7 7 7 7 8 7 8 7 6 5 4
14 15 11 7 7 6 13 13 6 6 6 6 7 6 5 6 6 7 7 7 7 7 9 9 9 10 11 11 12 10 9 9 8 7 7 7 7 7 7 7 6 5 4 4
13 15 16 6 7 10 8 5 5 5 5 6 6 6 6 7 7 8 8 8 8 8 8 8 10 11 12 12 11 11 11 10 8 7 7 8 7 7 6 6 5 5 5 3
11 11 7 6 6 5 4 5 5 5 5 5 6 7 7 8 7 7 7 8 7 8 8 10 12 12 13 12 12 12 11 11 9 8 8 8 7 7 6 5 5 3 4 4
10 8 7 6 5 4 5 5 4 5 5 6 7 7 7 7 7 8 7 7 7 8 9 11 12 13 13 13 12 13 12 11 9 10 10 8 8 6 5 6 5 5 5 5
10 8 7 6 5 5 6 6 5 5 6 7 7 8 8 8 8 8 8 8 9 10 11 12 12 13 12 13 13 14 13 12 11 11 11 9 8 7 6 5 6 6 6 6
12 7 6 6 5 4 5 5 5 6 7 8 8 8 8 8 8 8 9 9 10 12 12 12 12 13 13 12 13 14 14 13 12 12 11 9 8 7 8 9 9 10 11 9
8 5 5 4 4 3 4 4 5 5 7 8 8 8 7 7 8 9 9 10 12 12 13 13 13 13 13 13 13 14 15 14 14 13 12 11 10 9 8 6 8 8 10 10
4 4 6 4 5 3 3 4 5 6 7 7 8 7 7 8 9 9 10 12 12 13 13 13 13 13 13 13 13 12 14 14 14 13 13 13 12 11 8 9 9 7 7 11
4 4 4 3 3 3 4 5 7 7 8 7 7 8 8 9 9 9 11 12 12 13 13 13 14 14 13 12 12 12 11 14 15 14 14 14 13 13 11 10 11 10 7 10
4 4 4 4 4 4 5 6 7 7 7 7 7 8 8 8 9 9 11 11 12 12 12 13 13 12 11 11 10 10 11 12 13 14 15 15 15 14 14 13 12 11 11 11
5 5 4 5 5 5 6 6 6 6 7 6 6 7 7 7 8 9 10 10 10 12 12 12 12 11 11 11 10 10 10 10 12 11 11 15 15 15 15 15 14 13 12 12
3 3 3 4 5 6 7 7 7 7 7 7 6 7 7 8 9 9 9 9 10 11 12 11 12 11 11 12 11 11 11 11 11 11 11 11 12 14 14 15 16 15 14 12
3 3 4 4 5 6 7 7 8 7 7 6 7 7 7 8 9 9 9 10 11 12 12 11 13 11 11 13 13 11 11 11 11 11 11 12 11 11 12 12 14 16 15 14
4 4 5 6 7 7 7 7 7 7 7 7 7 7 8 9 9 9 9 11 11 11 10 11 11 11 11 12 13 11 11 11 12 12 12 11 12 11 11 12 12 13 14 16
5 6 7 7 7 7 7 7 8 8 8 7 7 8 9 9 10 10 11 12 12 11 11 12 11 12 11 12 11 12 12 12 12 13 12 12 12 12 12 12 12 12 13 14
6 6 7 7 7 7 7 7 7 7 8 8 8 8 9 10 10 10 11 11 11 13 11 12 12 14 13 14 11 11 12 12 13 14 14 14 14 13 13 13 13 12 12 13
6 6 6 6 7 7 7 7 7 8 8 8 8 9 9 10 10 11 12 11 10 12 11 11 14 14 15 11 11 11 11 12 13 14 14 14 14 14 14 14 13 13 13 13
6 6 6 6 6 7 8 8 8 8 7 8 8 9 9 9 10 9 10 12 13 12 11 12 13 14 14 11 11 11 11 12 13 13 14 14 14 14 14 14 14 13 13 13
6 6 6 6 7 7 7 7 8 8 8 8 9 10 9 9 10 10 10 10 13 11 10 13 13 13 11 11 11 11 11 12 12 13 13 14 14 14 14 14 15 14 14 14
6 6 6 6 6 7 7 7 8 8 8 10 10 9 9 9 9 8 9 11 10 11 10 10 11 11 11 11 11 11 11 11 12 12 12 13 13 13 14 14 14 14 14 14
5 7 5 6 6 6 7 8 9 10 9 9 10 10 10 9 10 10 12 9 10 10 10 10 10 11 11 11 10 10 10 10 11 11 10 11 12 12 12 13 13 13 13 13

GFSNGP_con_lsi_105.txt.gz
Lid_Strength_Index
10 11 12 11 9 9 10 10 14 10 10 10 9 8 5 5 4 4 4 4 4 4 4 4 4 4 4 3 3 2 3 3 3 3 3 3 4 5 5 5 5 5 5 5
12 10 10 11 10 10 9 9 9 8 9 6 6 6 5 5 5 5 4 4 4 4 4 4 4 4 4 3 3 3 3 3 3 4 4 4 4 5 5 6 5 5 5 5
16 10 10 12 10 9 9 7 8 10 7 5 6 6 6 5 5 5 4 4 4 4 4 4 4 4 4 4 4 4 4 4 4 4 5 5 5 5 5 5 4 5 5 5
15 12 17 9 7 7 8 7 6 6 6 6 6 5 4 4 4 4 4 4 4 4 4 4 4 4 5 5 5 5 4 4 5 5 5 5 5 5 4 5 5 5 6 6
14 14 10 9 8 8 8 8 6 6 6 6 5 5 5 4 3 3 4 4 4 4 5 5 6 6 6 6 6 7 6 6 6 6 6 5 6 5 5 5 6 6 6 5
13 16 16 10 7 6 6 12 6 6 6 6 5 9 8 4 4 4 4 4 5 5 5 6 6 7 7 8 8 8 8 8 7 6 6 7 6 5 6 5 6 5 5 4
13 14 10 7 6 5 13 13 6 6 6 6 8 6 4 4 5 4 4 5 5 6 6 6 7 8 8 9 10 10 10 10 8 7 7 6 5 6 5 6 5 5 5 4
13 14 16 6 6 10 8 6 5 5 5 6 5 4 5 5 5 5 5 6 6 6 7 7 8 9 10 11 11 11 11 10 9 8 7 6 6 6 6 5 5 5 5 4
10 11 7 5 6 5 5 6 5 5 4 4 5 5 5 5 5 5 6 6 6 6 7 7 8 9 11 12 12 13 12 11 10 8 7 6 7 7 7 6 5 6 5 5
9 8 7 6 4 4 4 4 4 4 4 4 5 5 6 6 6 7 7 7 6 6 6 8 7 9 11 12 12 13 13 12 11 9 9 7 7 7 7 7 7 6 5 6
10 7 7 6 5 4 4 3 4 4 5 5 5 6 6 7 7 7 7 7 7 7 8 9 9 10 12 12 12 13 14 13 13 11 10 9 7 7 7 5 7 8 6 8
10 6 7 7 5 4 4 5 5 6 6 6 6 7 7 8 7 8 8 7 8 8 9 10 11 12 12 12 12 13 14 15 14 12 11 10 10 8 9 9 10 11 10 11
7 5 5 5 4 3 4 4 4 5 6 6 6 6 7 8 8 7 7 9 9 9 11 12 12 12 12 12 12 12 13 14 15 13 12 12 13 11 11 7 9 10 11 11
4 5 6 5 6 4 3 3 4 4 5 6 7 7 7 7 7 8 9 9 8 10 11 12 12 13 12 12 11 11 11 13 13 14 14 14 13 13 14 11 10 8 9 11
4 4 4 4 3 3 2 3 5 6 7 7 7 7 7 7 9 9 9 8 10 11 12 12 13 12 12 12 11 10 9 10 10 12 14 14 14 13 14 14 12 11 9 10
4 4 4 4 4 3 4 5 6 6 7 6 6 7 7 7 8 9 9 10 11 12 11 11 12 11 10 11 10 9 8 11 10 9 9 10 12 14 14 14 15 14 13 12
6 6 5 5 4 4 4 5 5 6 6 6 6 6 7 6 7 8 8 9 10 10 10 11 10 9 9 10 9 9 9 9 11 9 9 9 10 10 12 13 14 15 14 13
3 3 3 4 4 4 5 5 6 6 6 6 6 6 6 7 8 8 8 8 9 9 9 9 10 9 9 10 10 9 9 10 10 10 10 10 10 9 9 11 11 13 15 14
3 3 3 3 4 5 5 6 6 6 6 6 6 7 7 7 8 8 8 9 10 10 10 9 10 9 9 11 11 9 10 10 10 10 10 11 10 10 10 10 10 11 12 15
3 3 3 4 5 5 6 6 6 7 6 6 6 7 7 8 8 8 8 10 10 10 9 10 10 10 10 10 12 10 10 10 11 11 11 11 11 11 10 11 10 10 11 11
3 4 5 6 6 6 6 6 7 7 7 6 7 8 8 8 9 9 9 10 10 10 10 11 11 11 10 11 10 9 10 11 11 12 12 12 12 12 11 11 11 11 11 11
4 5 6 6 6 6 6 6 7 7 7 7 7 8 8 8 8 9 10 10 10 13 10 11 11 13 12 14 9 10 10 10 11 12 13 13 13 13 13 12 12 11 11 11
5 6 6 6 6 6 6 7 7 7 7 7 7 7 8 8 9 9 11 10 9 10 10 11 13 14 14 9 9 9 10 10 11 12 12 13 13 13 14 13 13 12 12 12
5 5 5 5 6 6 7 7 7 7 7 7 7 7 7 8 8 8 9 12 12 12 10 11 12 13 14 9 9 9 10 10 11 11 12 13 12 12 13 14 14 13 13 12
5 5 5 6 6 7 7 7 7 7 7 7 7 7 8 8 8 8 8 9 12 10 9 14 13 12 9 9 9 10 10 10 11 11 11 12 12 12 13 13 14 14 14 13
5 6 6 5 6 6 6 6 7 7 7 8 8 8 8 8 8 7 8 10 9 10 9 9 10 10 9 10 9 10 10 10 10 10 10 11 11 11 12 12 12 12 12 13
4 6 5 5 5 6 6 6 7 7 7 8 9 8 8 8 9 9 11 8 8 9 9 9 9 10 10 9 9 9 9 9 10 9 9 10 10 11 11 11 10 11 11 11

GFSNGP_con_lsi_108.txt.gz
Lid_Strength_Index
12 11 12 12 10 10 11 11 14 11 12 9 8 7 7 6 5 5 5 4 4 4 3 3 4 4 4 4 3 3 3 3 2 1 1 2 3 3 3 3 4 5 6 6
13 12 11 12 12 10 10 10 10 10 11 9 6 6 6 5 5 5 5 4 4 4 4 4 4 4 4 4 4 4 4 3 3 2 3 3 3 3 4 4 5 5 5 5
16 12 13 16 13 12 10 8 8 12 9 7 8 7 7 6 5 5 5 4 5 5 5 4 4 4 5 5 5 5 4 3 3 3 4 4 4 4 5 5 5 5 5 5
15 13 18 10 9 9 8 8 7 7 7 6 6 6 5 5 5 5 5 5 5 4 4 4 5 5 5 5 5 5 5 4 4 4 5 5 5 6 6 6 6 6 5 5
16 17 13 10 8 8 9 9 6 7 7 6 6 6 6 5 5 5 5 5 4 4 5 5 6 6 7 6 6 6 6 6 6 7 6 6 7 7 6 6 6 5 5 5
14 18 18 11 7 5 6 12 6 6 7 7 6 11 8 5 5 5 4 4 5 5 5 6 6 6 7 8 7 8 8 8 8 8 7 8 7 6 6 6 6 5 5 4
14 15 13 8 6 5 12 13 6 6 6 7 8 7 5 4 5 5 5 5 5 5 6 7 7 7 8 8 9 9 9 9 9 9 8 8 6 7 6 6 6 6 5 4
13 14 17 6 6 10 9 6 6 6 6 6 5 5 5 5 5 5 5 5 5 6 6 6 7 8 9 10 9 9 10 11 11 10 9 7 7 7 6 6 6 6 6 6
11 12 7 6 7 5 5 6 5 5 5 4 5 5 5 5 5 6 6 6 6 6 6 6 7 8 10 10 9 10 12 12 12 11 9 9 8 7 7 6 7 7 7 7
10 8 8 7 6 5 5 5 4 4 4 4 5 5 5 6 6 7 7 7 7 7 8 8 8 8 9 10 10 10 13 13 13 12 11 9 8 8 8 7 7 7 7 8
10 8 7 6 6 5 4 4 4 4 4 5 5 6 6 7 7 7 7 7 7 8 9 9 8 8 9 10 10 11 12 14 14 13 11 10 10 10 10 9 9 9 8 9
12 7 7 7 5 4 4 5 5 5 6 5 6 7 7 7 7 7 8 8 9 9 9 9 9 10 10 10 11 12 12 13 14 14 13 12 11 11 12 12 11 11 11 11
7 6 5 4 4 4 4 5 5 6 6 7 6 6 6 7 7 8 9 8 8 9 10 10 10 11 11 12 11 11 12 12 13 14 14 14 13 12 13 12 11 11 11 12
4 5 6 5 6 4 4 5 5 6 5 5 5 6 7 8 8 9 9 9 10 10 10 10 11 12 12 12 11 11 11 13 11 11 12 13 14 13 13 14 14 13 11 12
5 4 5 4 4 4 4 5 6 6 6 6 6 7 8 9 9 9 9 9 10 10 11 11 12 12 12 12 11 10 10 10 9 8 9 10 11 12 12 12 14 14 13 12
5 4 4 4 4 4 5 5 6 6 6 7 7 7 7 8 9 8 9 9 11 12 11 12 11 10 11 10 10 9 9 11 10 8 9 9 9 9 10 11 11 13 14 14
6 6 6 5 5 5 5 5 5 5 6 7 7 7 7 8 8 8 8 9 10 10 10 11 11 9 10 10 10 9 9 9 10 9 9 10 9 10 10 10 10 11 12 13
4 4 4 4 4 5 5 5 5 5 6 6 6 7 8 7 8 9 8 9 9 10 10 10 10 9 10 10 10 9 9 10 10 11 10 10 10 10 10 11 10 11 11 12
3 3 3 4 4 5 5 5 5 5 6 6 7 8 8 7 8 8 9 9 10 11 11 10 10 9 10 10 12 9 10 10 11 11 11 11 11 11 11 11 11 11 11 11
3 3 4 4 4 5 6 6 6 6 6 7 7 7 8 8 8 8 9 11 11 10 10 11 10 10 10 10 12 10 10 11 12 12 12 12 12 12 12 12 11 11 11 11
3 4 4 5 6 5 6 6 6 7 6 6 7 8 8 8 9 8 9 11 11 10 10 11 11 12 11 11 11 10 10 11 11 12 13 13 13 13 13 13 12 12 12 12
4 5 6 6 6 6 6 6 6 6 7 7 7 7 7 8 9 10 10 10 10 12 10 11 11 12 12 13 9 10 10 10 11 11 13 13 14 14 14 14 14 13 13 13
5 5 6 6 6 6 6 6 7 7 8 7 8 7 8 8 8 10 12 10 9 11 10 11 12 13 13 9 9 9 10 11 10 11 11 12 13 13 14 15 14 14 14 13
5 6 6 6 6 7 7 7 7 7 7 8 7 7 7 8 9 9 10 11 12 11 11 11 12 13 13 9 9 10 10 10 11 10 10 12 11 12 12 14 14 14 14 14
5 5 6 6 6 7 7 7 7 7 8 8 7 7 7 8 8 9 8 9 11 10 10 13 12 12 9 9 10 10 10 11 11 10 11 11 12 12 12 12 12 12 13 13
4 5 6 5 6 6 7 7 7 7 8 8 8 7 8 8 8 8 9 9 9 9 9 9 10 10 9 10 10 10 10 10 11 11 11 11 11 11 11 11 11 11 11 11
5 6 5 6 6 6 6 6 7 8 7 7 9 8 8 8 9 9 11 8 8 9 9 9 10 10 10 10 10 10 10 10 11 10 10 10 10 11 10 11 10 11 11 11

GFSNGP_con_lsi_111.txt.gz
Lid_Strength_Index
12 11 11 12 12 11 13 13 16 14 14 11 10 9 8 7 6 6 6 5 6 6 6 6 6 6 5 6 6 6 5 5 5 5 5 5 6 6 5 5 5 6 6 5
15 12 12 13 12 12 11 12 13 12 13 9 8 7 8 7 7 6 7 6 6 6 6 6 6 6 6 6 6 6 7 6 5 5 5 6 5 5 6 6 6 6 6 6
18 13 13 16 13 12 12 11 12 15 11 9 9 8 8 7 6 7 7 7 7 6 7 7 7 7 7 7 7 7 7 6 6 6 6 6 5 6 7 7 7 6 6 8
17 15 21 13 9 9 10 10 10 11 9 8 8 7 7 7 8 8 8 7 7 8 8 8 8 7 7 7 8 7 8 8 7 7 7 6 6 7 7 6 6 7 7 6
18 18 15 12 10 11 12 12 9 9 8 8 9 9 9 8 8 8 8 8 8 8 8 8 7 7 7 8 8 8 9 9 8 8 8 7 8 7 7 7 7 7 6 6
16 19 20 13 8 7 7 15 8 8 9 9 8 13 11 8 8 8 8 8 8 8 7 7 8 8 8 9 10 10 10 9 9 9 8 8 8 8 7 8 7 6 6 6
16 18 15 9 7 6 15 16 8 7 7 8 10 10 9 8 8 8 8 7 7 8 9 10 9 10 9 10 11 10 10 10 9 8 8 8 8 8 8 7 7 7 7 7
15 17 19 7 8 13 10 7 7 8 8 8 8 8 8 7 8 7 8 7 7 8 9 9 10 10 11 11 9 9 11 11 10 10 10 9 9 9 8 8 8 9 9 8
14 15 9 7 8 7 6 7 7 8 7 8 8 8 7 8 8 8 8 8 8 9 9 10 10 11 12 12 9 9 10 11 11 12 11 10 10 10 10 10 10 10 10 9
12 10 9 7 7 6 6 7 6 6 7 7 8 8 8 8 9 9 9 9 9 10 11 11 11 11 12 11 10 9 11 11 12 13 12 11 11 11 13 12 12 11 10 12
11 9 8 7 6 6 6 6 6 6 6 7 8 8 9 9 9 9 9 9 10 11 11 12 11 12 12 11 11 11 12 12 13 13 13 13 12 12 13 12 12 13 12 12
13 8 8 7 6 6 7 7 7 7 7 7 8 9 9 10 10 10 10 10 11 12 12 12 11 11 11 11 11 12 13 13 14 14 14 14 14 13 12 12 12 13 12 12
8 6 6 6 5 6 7 7 7 7 8 8 8 9 9 10 10 8 10 11 12 12 11 11 12 12 12 12 12 12 13 13 13 14 14 14 14 14 14 12 12 13 13 13
5 5 7 6 7 7 7 7 6 7 7 7 8 8 9 10 10 11 12 11 11 11 12 12 12 12 13 12 12 12 13 12 14 13 14 14 13 13 13 13 13 13 13 13
5 5 6 6 6 7 7 7 8 8 7 8 8 9 9 11 11 11 11 11 11 12 12 12 12 12 12 12 12 12 12 13 12 11 12 12 12 12 12 12 12 12 13 13
5 6 6 7 7 7 7 7 8 8 8 8 8 9 10 10 10 10 10 10 12 13 12 12 12 11 11 11 11 11 11 11 11 11 12 12 12 12 12 13 13 13 13 14
7 7 6 6 6 6 7 7 7 7 7 8 8 9 9 10 10 10 10 10 11 12 12 12 12 10 10 11 12 11 11 11 11 12 12 12 12 13 13 13 13 13 14 13
4 5 4 5 6 6 6 6 6 7 7 7 8 8 9 10 11 10 10 10 10 12 12 12 11 11 10 11 12 11 11 12 12 13 13 13 13 13 14 14 13 14 13 13
4 4 4 4 5 6 6 7 7 7 7 7 8 9 9 9 10 10 11 11 12 13 13 12 10 11 11 11 12 11 12 13 13 14 14 14 14 14 15 15 14 14 14 14
4 4 5 5 6 7 7 7 7 7 7 8 9 9 9 9 10 11 12 13 13 14 13 12 13 13 13 12 12 12 12 13 14 14 14 15 15 15 15 15 14 15 14 14
5 5 6 7 7 7 7 6 7 7 7 8 9 10 11 11 9 10 13 14 13 12 12 12 13 14 14 13 13 12 13 13 14 14 15 14 14 15 16 16 15 15 15 15
6 6 7 7 7 8 7 7 7 8 8 9 8 9 10 10 11 11 11 13 13 11 12 13 13 13 14 13 12 12 13 13 14 14 14 14 14 15 15 15 15 15 15 15
7 6 7 7 8 8 8 8 8 8 9 9 9 9 9 10 11 13 14 12 12 12 13 13 13 13 13 12 12 13 13 14 15 16 17 16 13 15 15 15 15 15 15 15
7 7 7 7 7 8 9 9 8 9 9 8 8 8 9 11 12 12 12 11 13 12 13 14 13 13 12 13 13 13 14 14 15 16 17 15 17 18 16 15 14 14 14 14
7 7 7 8 9 9 9 9 9 9 9 10 9 9 9 9 11 11 11 12 12 12 13 13 13 12 12 12 13 13 14 14 15 16 16 17 18 18 18 18 16 15 15 13
7 8 7 7 8 8 9 9 10 10 10 10 10 10 10 10 10 10 11 10 11 11 12 12 12 13 12 13 13 13 13 14 14 14 15 15 15 15 15 15 15 15 14 13
7 7 6 7 7 8 8 8 9 10 10 10 10 10 10 11 11 11 11 11 11 11 12 12 13 12 13 12 13 13 13 14 13 14 14 15 15 15 14 14 14 13 13 12

GFSNGP_con_lsi_114.txt.gz
Lid_Strength_Index
12 11 11 12 13 12 13 13 15 15 14 12 10 9 8 7 7 7 6 8 8 8 8 7 7 7 7 7 7 7 7 7 7 6 6 6 6 7 7 7 6 6 6 6
15 11 12 13 12 12 12 12 13 13 13 9 8 8 8 8 7 7 8 8 7 8 8 8 8 8 8 8 7 7 7 7 7 7 7 7 7 7 7 7 7 6 6 7
18 13 13 16 13 13 12 11 12 15 12 9 10 9 8 8 7 8 8 8 8 9 9 9 9 9 9 9 8 8 9 8 8 8 8 7 7 7 7 7 7 7 7 6
17 15 21 13 9 10 12 11 10 10 9 9 10 9 7 7 8 9 9 9 9 9 10 10 10 10 9 9 9 9 10 9 9 9 9 8 8 8 8 8 7 8 7 6
18 18 15 12 10 11 12 13 9 10 9 10 9 10 11 9 9 9 10 10 10 10 10 11 10 9 9 10 10 10 10 10 10 10 9 9 9 7 8 8 7 8 7 7
16 19 21 13 9 7 8 15 8 9 10 10 8 13 13 10 9 9 9 9 10 10 11 11 11 10 11 11 11 11 11 11 10 9 9 8 8 7 7 7 7 6 7 8
17 18 15 9 8 7 15 15 8 8 8 9 11 10 10 10 9 9 9 9 10 11 12 11 11 11 12 12 12 10 11 11 10 9 10 8 8 8 8 7 9 9 9 9
16 17 19 8 8 12 10 9 9 9 10 10 10 9 9 9 9 9 10 10 10 11 11 11 11 12 12 13 11 9 11 11 10 10 10 9 9 9 10 10 11 12 11 12
14 15 9 7 8 7 8 9 9 9 9 9 9 10 9 10 11 10 10 9 9 10 11 11 12 12 13 13 11 11 11 12 11 10 10 10 10 12 13 13 13 13 12 14
12 10 9 8 8 7 8 9 8 8 9 8 10 10 10 10 11 10 10 11 11 11 12 12 12 12 13 12 12 12 12 12 10 11 11 11 11 11 13 14 14 13 14 14
11 9 9 8 8 8 8 8 8 9 9 10 10 11 10 10 10 11 11 11 11 12 12 12 12 12 13 13 12 13 12 11 11 11 11 12 13 12 13 13 14 14 14 14
13 9 9 9 8 8 8 9 9 9 10 10 10 11 11 11 11 11 12 12 12 12 12 12 12 13 13 12 12 13 13 13 13 13 13 13 14 13 12 13 13 13 13 13
9 7 8 8 8 8 9 9 9 9 9 10 10 10 11 11 11 10 11 11 12 13 13 13 13 13 13 12 12 12 13 13 14 13 14 14 14 14 14 13 12 13 13 13
7 8 10 9 10 9 9 8 8 8 9 9 10 10 10 11 11 12 12 13 13 13 13 12 13 14 13 12 12 12 13 12 13 13 13 14 15 14 13 13 13 13 12 12
7 7 9 9 9 9 8 8 9 10 9 10 10 10 11 12 12 12 12 12 12 13 13 12 12 12 11 11 12 12 12 12 13 13 13 13 13 14 14 14 14 13 13 13
7 8 9 10 9 9 9 9 9 9 9 10 10 10 11 11 12 12 12 11 13 14 13 13 12 11 11 11 12 12 12 12 12 12 13 13 13 14 14 14 14 14 14 15
8 9 9 10 9 9 9 8 8 8 9 10 10 10 10 11 12 12 12 12 12 13 13 13 12 11 11 12 12 12 12 13 12 13 13 14 14 15 15 15 15 15 15 14
5 6 7 8 8 8 8 7 7 8 9 9 9 9 10 12 13 12 12 12 12 13 13 13 12 12 12 12 12 12 13 13 13 14 14 14 15 15 16 16 16 16 16 15
5 6 7 6 6 7 7 8 8 8 8 8 9 10 11 11 12 12 12 12 13 15 15 13 12 13 13 12 12 13 14 14 14 15 15 15 16 16 16 16 16 16 16 16
6 7 7 7 7 7 8 8 8 9 9 9 9 10 11 12 12 12 13 14 14 15 14 13 14 14 14 12 12 13 13 14 15 15 15 15 16 16 17 16 16 16 16 16
7 7 7 7 7 7 8 8 8 9 9 9 10 11 11 12 12 13 14 15 14 13 13 12 13 14 14 13 13 14 14 15 16 16 14 15 17 16 16 16 16 16 16 16
7 8 8 8 8 8 8 8 8 8 9 10 10 11 11 12 11 12 13 14 14 12 13 14 14 14 13 12 13 14 14 14 15 16 16 15 17 17 16 16 16 16 16 16
8 8 8 8 8 9 9 9 9 9 9 10 10 11 12 13 12 13 14 13 13 13 14 14 13 13 13 13 14 14 14 15 17 17 18 19 19 18 17 16 16 16 16 16
8 8 8 8 8 9 10 10 10 10 10 10 10 10 11 13 13 13 13 12 12 13 14 14 13 13 13 14 14 15 15 16 18 19 19 17 20 19 20 18 17 17 16 16
8 8 9 9 10 11 11 11 11 11 11 11 11 10 11 11 12 13 13 13 12 13 13 13 13 13 14 14 14 15 15 16 18 19 18 19 20 20 19 20 19 17 16 16
8 9 9 9 9 10 11 11 12 12 11 12 11 11 11 11 11 12 12 12 13 12 14 14 14 14 14 14 14 14 15 15 16 17 19 19 19 19 18 19 17 17 16 15
9 9 9 10 10 9 10 11 11 11 11 11 11 11 11 11 12 12 12 12 13 13 14 14 14 14 14 14 15 15 15 15 15 15 15 17 17 17 16 16 16 16 15 15

GFSNGP_con_lsi_117.txt.gz
Lid_Strength_Index
13 12 11 12 12 11 13 12 15 15 15 13 11 10 9 8 8 9 9 8 8 9 9 9 9 9 10 9 8 7 7 8 8 8 7 7 7 7 7 7 7 7 7 7
15 12 11 14 12 11 11 12 12 13 14 9 9 8 8 8 7 9 8 9 9 10 10 10 11 11 10 9 9 9 9 9 9 8 8 8 8 7 7 7 7 6 6 6
18 13 14 17 13 13 13 12 12 15 12 9 10 9 8 8 7 8 8 8 10 10 11 11 11 10 11 10 10 10 10 9 9 9 9 9 8 8 8 8 8 8 7 7
17 15 21 14 10 10 12 11 11 11 10 9 9 9 7 6 7 9 9 10 11 11 11 11 11 11 11 11 11 10 11 10 10 10 10 9 9 9 9 9 8 8 7 7
18 18 15 13 11 12 12 13 10 10 10 10 10 9 11 9 9 9 10 11 11 11 11 11 11 11 12 12 11 11 12 11 11 10 10 10 9 8 9 9 8 6 6 7
16 19 21 14 10 8 8 16 9 9 10 9 8 13 12 10 10 11 10 10 10 10 11 11 11 12 13 12 12 12 12 12 11 9 9 9 8 9 7 7 7 7 8 9
16 18 15 10 8 7 16 14 8 8 9 10 13 11 11 10 10 10 10 10 11 11 12 12 13 13 13 13 12 11 11 11 11 10 10 9 9 8 9 9 9 9 10 11
16 17 19 8 9 12 11 8 8 10 10 11 11 10 10 10 10 10 10 10 11 13 13 13 13 13 13 13 12 11 11 12 12 11 10 9 9 10 10 12 12 12 13 13
14 14 9 8 10 9 8 10 10 10 10 10 11 11 11 11 11 10 11 12 11 12 12 12 12 13 13 13 12 11 12 13 11 10 10 10 10 11 12 13 14 13 13 14
12 11 10 10 9 8 8 9 9 8 9 10 11 11 12 12 12 12 11 12 11 12 13 13 13 12 13 12 12 12 13 13 12 11 11 10 10 11 12 13 15 15 15 15
12 11 10 10 9 9 9 9 9 9 10 11 11 12 12 12 12 12 12 12 12 12 13 13 13 13 13 12 12 13 13 13 12 12 12 11 11 11 12 13 14 15 15 14
13 10 10 11 10 9 11 11 10 11 12 11 11 12 12 13 13 13 13 13 13 13 13 13 13 13 13 13 13 13 14 14 14 13 13 13 12 12 12 13 13 14 14 13
10 9 10 10 9 9 11 11 11 11 11 12 11 12 12 13 12 11 13 13 13 13 13 14 14 14 13 13 13 13 15 14 13 12 13 14 13 14 14 13 13 13 13 13
9 9 11 10 12 10 10 10 10 11 11 11 11 11 12 12 12 13 13 13 13 13 13 13 13 14 13 13 13 13 14 12 13 14 14 14 14 14 14 15 15 14 13 13
9 9 10 10 10 10 10 11 11 12 12 12 11 12 12 13 13 13 13 13 13 13 13 13 13 13 12 12 12 12 13 13 13 13 13 14 14 14 14 15 15 15 15 15
9 9 10 10 11 10 11 11 12 12 12 12 12 11 12 12 12 13 13 13 14 14 13 13 13 12 12 12 12 13 13 11 12 13 14 14 14 15 15 15 16 16 16 16
10 11 10 11 11 11 11 10 11 11 11 11 11 11 12 12 12 13 14 14 13 13 13 13 13 12 11 12 13 13 13 13 13 15 15 15 16 16 16 16 16 17 17 16
8 9 9 9 10 10 10 9 10 10 10 10 10 11 12 13 13 14 14 14 14 14 14 13 13 12 12 12 13 14 14 14 14 15 15 16 16 16 17 17 17 17 17 16
7 8 8 9 9 8 8 9 9 9 9 10 11 12 11 12 12 13 14 14 15 15 15 14 12 13 13 12 13 14 14 14 15 15 15 15 16 16 16 17 17 17 17 17
7 7 8 8 7 8 9 9 8 9 10 10 11 11 12 12 13 14 14 15 15 16 14 14 14 14 13 12 13 14 14 15 15 15 15 16 16 17 17 16 16 16 16 16
7 7 8 8 8 8 8 9 9 10 10 10 11 12 12 13 13 14 16 16 15 14 13 13 14 14 13 14 14 15 15 16 16 16 16 17 17 17 17 17 16 16 16 16
8 8 8 8 8 9 9 9 9 10 10 10 10 11 12 13 14 14 14 15 14 12 14 14 14 13 13 13 14 15 15 15 16 17 16 17 17 17 17 17 16 16 17 16
8 8 8 8 9 9 9 9 9 10 10 10 11 11 12 14 14 15 15 13 14 13 14 14 14 14 14 14 15 15 15 16 18 19 20 19 20 19 18 18 17 17 17 17
9 8 9 9 9 9 11 11 10 10 10 11 11 11 12 14 14 14 13 12 13 13 14 14 14 14 14 15 15 16 16 16 19 20 20 19 22 21 22 20 19 18 17 17
8 9 9 10 11 11 11 11 11 11 11 11 11 11 12 13 14 13 13 13 13 13 14 14 14 14 15 15 16 16 16 17 20 20 19 20 21 21 21 21 20 19 17 17
9 9 10 10 11 11 11 11 12 12 12 12 12 12 12 12 12 12 13 13 13 14 15 15 15 15 15 15 15 16 16 16 16 18 20 20 20 19 19 19 18 17 17 16
10 10 11 12 12 11 12 11 11 12 12 12 12 12 12 12 12 12 12 14 14 14 14 15 15 14 15 15 15 15 16 16 16 16 16 18 18 18 18 18 18 16 16 16

GFSNGP_con_lsi_123.txt.gz
Lid_Strength_Index
13 13 13 13 12 10 11 10 13 11 12 12 10 10 9 8 7 8 8 7 7 7 7 6 6 6 6 6 6 6 6 6 6 5 5 4 5 4 4 4 3 3 4 3
15 13 12 13 11 10 10 10 10 10 11 8 8 8 8 8 8 8 7 7 7 7 7 7 7 8 8 8 7 6 7 7 7 6 6 6 5 5 4 4 4 4 4 3
18 14 13 16 12 11 10 9 10 12 10 9 9 9 8 8 7 7 7 8 8 9 9 9 8 8 9 9 8 8 8 8 8 8 7 6 6 5 5 4 4 4 3 3
17 16 21 13 8 8 10 9 9 10 10 9 8 7 7 6 7 8 8 8 9 11 11 11 9 9 10 10 10 9 9 9 8 7 7 6 5 5 4 4 4 4 4 4
18 18 15 13 10 11 11 13 9 10 9 8 8 8 8 7 6 7 8 9 10 10 11 11 11 11 11 11 9 9 9 8 8 7 6 6 6 6 6 5 4 4 5 6
16 18 21 14 10 7 8 14 9 8 9 9 8 12 10 9 10 10 10 11 11 11 12 10 10 9 9 9 9 9 9 8 8 7 6 6 7 6 6 6 6 6 7 7
16 17 15 10 9 6 15 13 8 8 8 8 9 8 10 10 11 11 12 12 11 12 12 11 10 9 9 9 9 9 9 9 8 6 6 6 6 7 7 7 8 8 8 7
14 17 19 10 9 12 9 7 7 7 7 9 10 10 10 11 12 13 13 12 12 12 11 10 10 10 10 10 9 8 7 7 7 6 6 7 8 8 9 10 10 10 9 8
14 14 10 9 9 6 6 7 7 8 8 9 10 11 11 12 12 12 12 12 11 11 12 11 10 9 11 10 8 7 7 7 7 7 7 7 9 10 11 11 12 12 11 10
12 11 11 10 8 7 7 7 7 8 9 9 10 10 11 12 11 11 11 12 12 12 11 11 9 9 8 8 8 7 7 7 7 7 7 8 8 9 10 11 11 10 10 11
12 11 11 10 9 8 8 8 9 9 9 10 10 10 11 11 11 11 11 12 11 10 11 10 9 8 8 8 7 8 8 8 8 8 8 8 9 9 10 12 12 12 12 11
14 11 12 12 10 9 9 10 9 10 10 9 10 10 10 11 11 12 12 11 11 10 9 9 9 8 8 8 7 7 8 8 9 8 8 9 9 10 12 12 13 13 14 14
13 11 12 12 11 10 10 10 10 10 10 11 10 11 11 11 11 11 10 10 10 10 9 9 9 9 9 8 8 9 9 9 9 9 9 10 10 10 11 11 12 14 14 15
10 10 12 12 13 11 11 11 10 10 10 11 11 10 10 11 10 10 11 10 9 9 9 9 9 10 9 9 9 9 9 11 9 10 10 10 11 11 11 12 13 13 13 14
11 11 11 11 10 11 10 10 11 11 11 11 10 11 10 11 11 11 10 9 9 9 9 9 10 10 9 9 9 10 10 10 10 10 10 11 11 12 12 12 13 12 12 12
10 10 10 11 11 10 10 10 11 11 11 11 11 11 11 10 10 10 10 9 10 10 10 10 10 10 9 9 10 10 11 12 11 11 11 12 12 13 13 13 13 13 14 15
10 11 11 11 11 10 11 10 11 11 11 11 11 11 11 10 10 10 10 9 9 9 9 10 10 10 10 10 10 11 11 11 13 12 12 12 12 13 12 13 14 14 14 14
7 8 8 9 10 10 10 10 10 11 11 11 11 11 10 10 11 11 10 10 10 10 9 10 10 10 10 10 10 11 11 12 12 12 12 12 12 12 12 13 13 13 13 13
7 8 8 8 9 9 10 10 10 10 10 10 10 11 11 11 10 10 10 10 10 11 10 10 11 10 10 11 11 11 11 11 12 12 12 13 12 12 12 13 13 13 13 13
7 7 7 8 8 9 10 9 9 9 9 9 9 10 11 11 11 10 10 10 10 10 9 10 10 10 10 11 11 11 11 11 12 12 12 12 12 13 13 13 13 13 13 13
7 7 7 8 8 8 9 9 9 9 9 9 9 10 11 11 10 10 10 11 10 9 9 10 9 10 10 11 11 11 11 11 12 12 12 12 12 13 13 13 13 13 13 13
6 7 7 7 8 8 8 8 8 9 9 9 9 10 10 11 11 10 9 10 9 12 9 9 9 11 11 12 10 11 11 11 12 12 12 13 13 13 14 13 13 13 13 13
6 6 6 7 7 8 8 8 8 8 9 9 9 10 10 10 10 10 11 10 9 10 8 9 12 13 13 10 10 10 11 11 12 12 12 13 13 13 14 14 14 13 13 13
6 6 6 6 7 7 8 8 7 7 8 8 8 9 9 10 10 9 9 11 13 10 9 10 12 13 12 10 10 10 11 11 11 11 12 14 12 13 13 14 14 13 13 13
6 6 7 7 7 7 7 7 7 7 8 8 8 8 9 8 9 9 9 9 12 10 9 13 13 13 9 9 10 10 11 11 11 11 12 12 12 12 13 13 13 13 13 12
6 7 6 6 6 7 7 7 8 7 7 8 8 8 8 8 8 9 9 10 9 11 10 10 10 10 9 9 10 10 10 10 10 11 12 12 12 12 12 12 12 12 12 12
8 8 7 8 7 7 7 7 7 8 8 8 9 8 8 8 8 9 10 9 9 9 10 10 10 10 9 9 9 9 9 9 11 11 11 11 11 11 11 11 11 11 12 12

GFSNGP_con_lsi_129.txt.gz
Lid_Strength_Index
11 11 11 12 12 11 12 12 14 12 13 10 10 10 9 8 7 7 7 6 5 5 4 3 3 2 2 2 2 1 1 1 1 1 1 1 1 1 1 1 2 2 2 2
13 10 12 13 11 10 10 10 11 13 12 9 9 8 9 8 8 7 6 5 5 4 4 4 3 4 3 3 3 2 2 3 2 2 2 2 2 2 2 2 2 2 3 3
16 12 14 17 11 11 10 9 9 15 11 9 10 9 9 8 7 6 6 5 5 5 5 5 4 4 4 4 3 4 4 4 3 3 4 3 3 3 3 4 4 4 4 4
17 16 21 11 8 8 9 8 9 11 10 9 9 8 7 6 6 6 6 6 6 6 6 5 5 5 4 4 5 5 5 5 5 4 4 4 4 4 5 5 4 4 4 3
18 18 14 11 9 9 10 11 9 11 10 9 8 8 8 5 5 5 5 6 6 6 6 5 5 5 5 5 5 5 6 6 5 5 5 5 5 5 4 4 4 4 4 4
16 19 21 12 8 7 8 16 8 9 9 9 8 12 10 6 5 6 6 6 6 5 6 6 6 6 6 7 7 7 7 6 5 5 5 5 4 5 4 4 4 4 5 5
16 17 16 11 9 7 16 14 8 8 8 8 10 8 8 7 7 7 7 8 8 8 9 8 7 7 8 8 8 7 7 6 4 4 5 5 5 5 5 5 5 6 6 6
15 18 19 8 9 12 9 7 7 7 7 9 10 10 10 10 10 9 9 9 9 8 8 7 6 7 8 7 5 5 5 5 5 5 5 5 4 4 4 4 4 5 5 6
14 15 10 8 8 7 6 6 6 6 6 9 11 12 13 13 12 11 10 10 10 9 8 6 6 5 6 6 5 5 5 5 5 4 4 4 5 5 7 6 7 7 7 7
12 11 10 8 6 6 5 6 5 5 8 10 12 13 14 13 12 12 10 9 8 8 8 8 6 6 6 5 5 5 5 4 5 5 4 5 6 6 9 10 10 10 9 9
14 11 9 8 6 6 6 6 7 8 10 11 12 12 13 13 12 12 11 10 8 8 7 7 7 6 5 5 4 5 5 5 4 5 5 5 7 8 9 11 12 12 12 10
15 11 10 11 8 7 8 8 9 10 11 11 12 12 12 12 11 10 10 8 8 7 7 7 6 6 5 4 4 5 5 6 6 5 6 6 7 9 13 12 13 13 13 13
12 10 10 10 10 9 10 10 10 10 11 11 10 10 10 10 9 8 8 7 7 7 7 6 6 6 6 5 5 5 5 5 6 7 7 7 7 8 9 12 13 13 12 12
10 10 11 11 12 10 10 11 10 11 11 11 10 9 9 8 8 8 8 7 6 6 7 7 7 7 6 5 5 6 6 9 7 7 7 8 8 8 8 9 9 9 12 11
11 10 10 9 9 10 10 10 10 11 10 9 8 8 8 8 8 7 7 6 6 7 7 7 7 7 6 6 6 6 6 7 7 8 8 8 8 8 8 8 8 9 9 10
10 10 9 8 8 7 8 8 9 9 8 8 9 8 8 7 7 7 7 7 7 8 7 8 7 7 6 6 6 7 8 11 9 7 8 8 8 8 8 8 8 8 9 10
10 10 9 9 8 8 8 8 8 8 8 8 8 7 7 7 7 7 7 7 7 7 7 7 7 7 7 6 7 7 8 8 12 8 8 8 8 8 8 8 8 9 9 10
7 7 8 8 8 9 9 8 8 8 8 8 7 7 7 7 8 8 7 7 7 8 7 7 7 7 7 7 7 7 7 8 8 8 8 8 8 8 8 8 9 9 9 9
6 7 8 8 8 8 8 8 8 8 7 7 7 8 7 7 7 7 7 7 8 9 9 8 9 7 7 9 8 7 8 8 8 8 8 10 8 8 9 9 9 9 9 9
6 6 7 7 7 7 8 7 7 7 7 7 7 8 8 7 7 6 6 7 7 7 6 7 7 7 8 8 9 7 8 8 8 8 9 8 9 9 8 10 9 9 9 9
6 6 7 7 7 7 7 6 7 8 7 7 7 8 8 7 6 6 7 8 7 7 7 8 7 7 7 8 8 8 8 8 8 9 9 9 9 9 9 9 9 9 9 9
5 6 6 6 6 7 6 6 6 7 7 8 8 7 7 8 7 6 6 6 7 10 6 7 7 11 9 11 8 8 8 8 8 8 9 9 9 9 9 9 9 9 9 9
4 5 5 6 6 6 6 6 6 7 7 8 7 7 7 6 6 7 7 6 6 7 6 7 12 12 12 7 7 8 8 8 8 8 8 8 8 9 9 9 9 9 9 10
3 3 4 5 5 6 6 6 6 6 7 7 7 6 6 6 6 6 6 9 10 9 7 9 10 12 13 7 7 8 8 8 8 8 8 12 8 8 8 9 9 9 9 9
3 3 4 5 5 6 5 5 6 6 6 6 6 6 6 5 6 6 6 7 10 8 7 12 12 12 7 7 7 8 8 8 9 7 7 8 8 8 8 8 9 9 9 9
3 3 3 4 4 5 5 5 6 5 6 7 6 6 5 5 6 6 6 7 6 8 7 8 8 7 6 7 7 8 7 8 8 7 9 8 8 8 8 8 8 8 8 8
2 4 3 4 4 5 5 5 5 5 5 5 6 6 5 5 6 6 7 6 6 6 6 6 7 8 7 7 7 7 6 6 9 8 8 7 7 8 8 8 8 8 8 8

GFSNGP_con_lsi_132.txt.gz
Lid_Strength_Index
12 11 12 13 12 11 12 11 15 12 12 11 10 10 9 8 7 7 7 6 5 5 5 4 4 4 3 2 2 1 2 2 2 1 1 1 1 1 0 1 2 2 2 3
13 11 11 13 12 11 10 10 10 13 13 10 9 8 8 8 7 7 7 6 5 5 4 5 4 4 3 3 2 2 2 2 2 2 2 2 2 2 2 3 3 3 4 5
16 11 13 16 12 12 10 9 12 15 12 9 10 10 9 8 8 7 7 6 6 5 5 5 4 4 4 4 3 3 4 4 3 3 3 3 3 4 4 4 4 4 5 6
16 15 21 12 8 8 9 10 10 10 10 9 9 8 7 6 7 7 8 7 7 6 6 5 4 5 5 4 5 5 5 5 4 4 4 4 5 5 5 4 5 5 6 7
18 18 15 12 9 9 10 13 9 10 9 9 8 8 8 7 7 7 8 7 7 6 6 6 6 5 5 6 6 6 6 5 5 5 5 6 6 6 6 6 6 6 5 6
16 19 21 15 10 7 7 16 9 9 9 9 8 13 10 7 7 8 7 7 7 7 6 6 6 6 7 7 6 6 6 6 5 5 5 6 6 6 5 5 5 5 6 5
16 17 16 11 9 7 14 15 9 8 8 8 10 9 8 7 7 7 7 6 6 6 6 7 6 6 7 7 7 7 7 6 6 6 6 5 5 5 4 4 5 5 6 5
16 18 19 8 9 13 10 8 8 8 8 9 10 9 9 9 9 8 8 8 7 7 7 6 6 6 7 7 6 6 6 6 5 5 6 5 5 5 6 6 3 4 4 5
14 15 10 8 8 7 7 7 8 9 10 10 11 10 10 10 10 9 8 8 7 8 7 7 7 6 7 7 7 5 5 5 5 5 5 5 7 9 9 8 8 8 8 8
12 11 10 8 7 6 6 6 8 8 9 10 11 11 11 11 10 9 9 8 7 7 8 8 8 7 7 5 5 5 5 5 5 6 6 6 7 9 10 11 10 11 11 11
13 11 9 8 9 8 8 8 9 10 10 11 12 12 11 12 11 10 10 9 8 9 9 9 6 6 5 5 5 5 4 4 5 5 5 7 9 9 11 13 13 13 12 12
14 11 12 11 9 9 9 10 10 11 11 11 11 12 12 12 11 10 9 8 9 9 7 7 6 6 5 4 4 4 5 5 5 5 5 7 9 12 12 12 13 13 13 12
12 11 11 11 10 9 11 11 10 10 10 11 10 11 11 11 10 9 9 9 8 8 7 7 6 6 6 5 4 4 5 5 6 6 6 7 7 9 12 13 13 13 12 12
10 11 12 11 13 11 11 10 9 10 10 10 10 9 9 9 8 9 8 8 7 7 7 6 7 7 6 6 6 6 6 8 6 6 7 8 8 8 8 9 11 11 12 12
11 11 11 10 10 11 10 11 11 11 10 10 9 8 8 8 8 7 7 6 6 7 7 7 7 7 6 6 6 6 6 7 7 7 8 8 7 8 8 8 8 9 10 10
9 10 10 11 10 10 10 10 11 10 9 8 8 8 7 7 7 7 7 7 7 8 7 7 7 7 7 7 7 7 8 9 8 7 7 8 8 8 8 8 8 9 10 10
9 9 8 9 9 9 9 8 9 9 9 8 7 7 7 7 7 7 7 7 7 7 7 7 7 7 7 6 6 7 7 7 9 8 8 8 8 8 8 8 9 9 9 10
9 8 8 8 8 8 8 8 8 8 8 7 6 7 7 8 8 8 8 7 8 8 7 7 7 7 7 7 6 7 7 8 8 9 9 9 8 8 8 8 9 9 9 9
8 9 9 9 8 8 8 8 8 7 7 7 7 7 7 7 7 8 8 9 9 10 9 8 8 8 7 8 7 7 7 8 8 8 8 9 8 8 9 9 9 9 9 9
7 7 8 8 8 8 8 7 7 7 7 7 7 7 7 7 7 7 8 8 8 8 7 7 7 7 6 7 8 7 8 8 9 9 9 9 9 9 9 10 9 9 9 9
6 6 7 7 7 7 7 7 7 7 7 7 7 7 7 6 6 7 8 10 8 7 7 8 7 7 7 9 7 7 8 8 9 9 9 9 9 9 9 9 9 9 9 9
6 6 7 6 7 7 7 7 7 7 7 7 7 7 7 7 7 7 7 8 8 10 7 7 8 11 10 11 7 8 8 8 8 8 9 9 9 9 9 10 9 9 9 9
6 6 6 6 6 6 6 6 7 7 7 7 7 7 7 7 7 8 9 7 6 7 7 8 11 12 12 7 7 8 8 8 8 9 8 8 8 8 9 10 9 9 9 10
4 5 5 5 5 6 7 6 6 6 7 6 6 6 6 7 7 6 6 9 9 7 8 9 10 12 13 7 7 8 8 8 8 8 8 11 7 8 8 9 9 9 10 9
3 4 5 5 5 6 6 6 6 6 7 7 6 6 5 5 6 6 6 7 10 8 8 12 12 11 8 7 7 8 8 9 9 8 7 7 8 8 7 8 8 9 9 9
3 4 4 4 5 5 5 6 7 6 6 7 6 6 5 5 6 6 7 7 6 8 8 9 8 7 6 7 8 8 8 9 9 8 9 7 8 8 8 7 8 8 8 8
2 5 4 4 4 4 5 5 6 6 6 6 6 5 5 6 6 6 7 6 7 6 6 7 7 8 7 7 7 8 8 7 9 8 8 7 7 7 7 8 7 8 8 8

GFSNGP_con_lsi_138.txt.gz
Lid_Strength_Index
13 12 12 13 13 13 14 14 16 14 14 12 11 10 9 8 8 8 7 7 6 6 5 6 6 6 5 5 5 5 5 6 6 7 7 6 6 5 5 7 8 9 10 10
15 13 12 14 12 12 13 13 12 13 13 10 10 8 9 8 8 8 7 7 6 6 6 7 7 6 6 5 5 5 6 6 7 6 6 6 6 6 6 7 9 10 11 11
18 14 15 17 14 13 12 11 12 15 12 10 10 9 9 10 10 8 7 6 6 7 7 6 6 6 6 5 5 5 7 7 6 7 6 6 6 7 7 8 10 11 12 13
17 16 21 14 10 10 11 11 10 11 11 10 9 8 7 7 10 7 6 7 7 7 7 6 6 6 5 6 6 7 6 8 7 6 7 7 7 8 8 9 10 11 12 14
18 18 15 14 12 12 13 14 10 11 10 9 8 8 8 7 6 8 9 8 8 7 7 8 7 7 6 7 7 8 8 7 7 7 8 8 9 9 9 9 10 10 12 14
17 19 21 14 10 8 9 16 9 9 10 11 9 13 11 10 11 10 10 9 10 9 8 8 8 7 8 8 9 8 8 8 8 9 9 9 9 9 10 10 10 9 11 13
17 17 15 11 9 8 16 16 9 9 10 11 12 11 10 10 10 9 9 9 8 8 9 9 8 8 10 9 9 8 8 9 8 9 11 12 13 13 10 10 10 10 12 12
16 17 19 9 9 14 11 8 8 9 10 11 11 10 10 10 10 10 10 10 9 9 10 9 9 9 9 9 9 9 8 11 12 13 13 13 14 13 13 12 10 10 12 14
16 17 13 9 9 8 8 9 10 10 10 10 11 11 11 11 10 10 9 9 9 9 9 9 8 9 10 10 9 9 11 13 14 14 15 14 15 15 14 13 14 15 15 16
14 14 13 10 10 10 9 10 9 10 9 10 11 11 11 11 11 10 9 9 9 9 9 9 9 9 9 9 10 11 12 13 14 15 15 15 15 15 15 15 16 15 16 17
14 14 12 11 11 10 11 10 11 10 11 10 11 11 11 11 11 11 10 10 9 9 9 9 8 9 8 8 10 11 12 12 13 14 15 15 15 15 15 15 15 16 16 16
17 14 14 13 11 10 11 11 11 11 11 10 10 10 10 11 11 11 10 10 10 9 9 9 9 9 9 9 9 10 12 12 13 13 14 15 15 15 12 12 12 12 12 14
13 11 11 11 10 10 11 10 10 10 10 11 10 10 11 11 10 9 10 11 11 11 11 11 11 11 10 9 9 8 10 11 12 13 14 15 16 15 15 14 11 11 12 12
10 10 12 10 11 10 10 9 9 9 9 10 10 9 10 10 10 10 11 11 11 11 11 11 11 11 10 10 10 10 10 10 11 12 13 14 14 15 15 15 15 14 12 12
11 10 10 10 9 9 9 9 10 10 10 10 9 10 10 11 11 11 11 11 11 11 10 10 10 11 10 10 11 11 11 12 12 12 12 12 12 13 13 14 15 15 15 12
10 10 10 10 10 10 10 10 10 10 10 10 10 10 11 11 11 11 11 10 11 12 11 11 11 10 10 11 11 12 11 11 11 12 13 13 12 12 14 14 15 15 15 15
12 12 11 11 11 10 10 10 10 10 10 11 12 11 11 11 11 11 11 11 10 10 11 11 11 9 10 11 11 12 12 12 11 12 13 13 13 13 13 14 15 15 15 14
9 9 9 10 11 11 10 10 10 10 10 10 10 10 10 11 12 11 11 11 11 11 12 11 11 11 10 10 11 12 12 13 12 13 13 13 14 13 14 14 14 14 14 13
9 9 9 10 10 10 10 10 10 9 9 9 10 10 10 11 11 12 12 12 12 13 13 11 10 11 11 11 11 12 12 12 13 13 12 12 14 14 14 14 14 14 14 14
10 10 9 9 9 9 9 9 8 9 9 9 10 10 11 11 11 11 12 13 13 12 12 11 12 12 12 11 11 12 12 12 13 13 13 14 15 15 15 14 14 14 14 14
11 10 10 10 10 9 9 8 9 9 9 9 10 10 10 10 10 11 13 13 12 11 11 11 12 13 12 11 11 11 11 12 12 13 13 14 15 15 14 14 14 14 13 14
10 10 10 9 9 9 9 9 8 8 8 8 9 9 10 11 11 11 11 12 11 11 12 13 13 12 11 11 11 11 11 12 13 13 14 14 14 14 14 15 14 14 13 14
9 9 9 9 9 9 9 8 8 8 8 8 9 9 10 10 10 12 13 11 11 11 12 13 13 12 12 11 11 11 11 12 13 13 13 13 14 14 14 14 14 13 13 13
9 9 9 9 9 10 10 10 9 9 9 9 9 8 9 10 11 11 11 10 11 12 12 13 12 12 12 11 11 11 11 11 12 12 13 13 15 14 16 13 14 13 13 14
8 8 9 9 10 11 11 10 10 10 9 9 9 9 9 9 10 11 11 11 11 12 12 12 12 12 11 11 11 12 12 12 12 12 12 12 13 13 15 15 14 13 14 14
9 9 9 9 9 10 10 10 11 10 10 11 10 9 10 10 9 10 11 11 11 11 12 13 12 11 11 11 12 12 12 12 12 12 12 12 12 12 13 14 15 14 13 13
7 8 9 9 9 9 9 10 10 11 10 10 10 10 9 10 10 10 10 10 11 11 13 12 12 11 11 11 11 11 11 11 11 11 11 11 11 11 12 12 13 13 13 13

GFSNGP_con_lsi_141.txt.gz
Lid_Strength_Index
13 12 12 13 13 13 14 14 17 15 14 12 10 10 10 9 8 8 8 7 6 6 5 5 5 5 5 6 6 6 7 8 8 8 8 8 10 10 11 10 10 10 11 11
16 13 14 15 13 13 12 12 13 14 14 9 9 9 9 9 8 8 8 7 6 6 5 5 7 6 6 7 7 8 9 8 8 8 8 9 9 10 10 10 11 11 12 13
18 15 15 17 14 13 13 11 12 16 12 10 11 10 10 9 8 8 7 7 6 6 6 7 7 6 7 8 8 8 8 8 8 8 9 9 9 9 10 11 12 13 14 14
18 17 21 14 10 11 12 12 11 11 11 10 9 9 9 7 8 9 7 6 6 7 6 7 7 8 8 8 9 8 8 9 8 9 8 8 8 10 10 12 13 14 15 15
20 19 15 13 12 12 13 13 10 11 10 9 8 8 9 6 7 7 6 6 6 7 7 8 9 9 9 8 8 9 9 9 8 8 8 8 9 10 10 11 13 14 15 15
18 20 21 14 10 9 10 16 9 10 11 10 9 13 11 7 6 6 6 8 8 8 9 9 8 8 9 9 9 10 9 9 9 8 8 9 10 10 10 11 13 14 14 15
17 18 15 10 11 8 17 16 11 10 11 10 11 10 8 8 8 7 9 9 9 9 10 9 8 8 9 9 10 9 9 10 11 12 12 11 10 9 10 12 13 14 15 15
16 18 19 12 11 14 11 10 10 11 11 11 10 10 8 8 8 8 10 10 10 10 9 8 8 9 10 10 10 11 13 14 14 14 12 12 12 12 11 13 14 16 16 16
17 17 14 12 10 9 9 11 11 11 11 11 11 11 9 11 10 10 11 10 10 10 10 9 9 9 10 11 13 14 15 15 15 15 15 14 14 14 15 16 16 16 17 17
15 14 14 12 10 10 10 11 10 10 11 11 12 11 10 10 11 11 10 10 9 10 10 10 9 10 11 13 14 15 16 16 16 16 16 16 16 16 16 16 17 17 17 16
15 14 13 12 11 11 11 10 11 10 11 11 12 12 12 12 11 11 10 10 10 10 10 10 10 11 12 12 13 15 15 16 16 16 16 16 16 15 15 16 16 17 17 16
17 14 13 13 11 10 11 11 11 11 11 12 12 11 11 11 11 10 10 10 10 10 10 10 10 10 11 11 13 14 15 16 16 16 16 15 15 16 12 12 12 12 12 13
13 10 11 11 10 10 11 10 10 10 11 11 11 11 11 12 11 10 10 11 11 11 11 10 10 10 10 11 12 14 15 15 15 15 15 16 16 15 16 14 11 11 11 11
10 10 12 10 11 10 10 10 9 10 10 11 11 10 11 11 12 12 12 11 11 12 12 12 12 12 10 10 12 13 13 12 14 15 15 16 16 16 16 15 15 15 12 11
10 9 10 9 9 9 9 9 10 11 10 10 10 11 11 12 12 12 12 12 12 12 12 13 13 13 10 10 11 11 12 13 13 14 15 14 15 15 15 15 15 15 14 13
10 9 9 10 10 10 10 10 11 11 10 11 11 11 12 12 12 12 12 12 13 14 13 13 13 12 11 11 11 12 12 11 12 13 13 14 14 14 15 15 15 15 15 15
11 11 11 10 10 10 10 10 10 11 11 12 12 12 12 13 13 13 13 13 12 13 12 12 12 11 10 11 12 12 13 13 12 14 14 13 14 14 15 15 15 15 15 14
9 9 10 10 10 11 11 11 11 12 12 12 12 12 13 13 13 13 12 12 12 12 12 12 11 11 12 12 13 13 13 14 14 14 14 14 14 14 14 15 15 15 15 14
8 9 10 10 10 11 11 12 12 11 11 11 12 12 12 12 13 13 12 13 13 14 14 12 10 12 13 11 12 13 13 13 14 15 14 13 14 15 15 15 15 15 15 15
10 10 10 11 10 11 11 11 10 10 10 11 11 12 12 12 12 13 13 14 14 14 13 12 12 13 13 12 12 13 13 14 14 15 14 15 15 15 15 14 15 15 15 15
11 11 11 10 10 9 10 9 10 10 10 10 11 12 12 12 12 13 13 14 14 13 13 12 12 13 13 12 12 13 13 14 14 14 14 15 15 15 15 15 15 15 15 15
11 11 11 10 10 10 10 10 9 10 10 10 10 11 11 12 12 13 13 13 14 12 13 13 13 12 12 12 12 13 13 13 14 14 14 14 14 14 15 15 15 15 15 15
11 11 10 10 10 10 10 9 9 9 9 10 10 11 12 12 13 13 14 12 13 12 13 13 13 13 12 12 12 12 12 13 13 14 13 14 14 14 14 14 15 14 15 15
10 10 10 10 10 10 10 10 9 9 9 9 10 10 11 12 13 12 12 11 12 12 13 13 13 12 12 12 12 12 12 12 13 13 13 14 15 14 17 14 14 14 14 14
10 10 10 10 11 11 11 10 10 10 10 10 10 10 10 10 11 11 11 12 12 12 13 13 13 13 11 11 11 12 12 13 13 13 13 13 14 14 16 17 15 14 14 14
10 10 10 10 11 11 11 11 11 11 11 11 11 10 10 10 11 11 12 12 12 12 13 13 12 12 12 11 11 11 12 12 12 12 12 13 13 13 15 15 15 15 13 14
10 10 10 11 11 11 11 11 11 11 11 10 11 11 11 11 11 12 12 12 12 13 13 13 13 12 12 12 11 11 11 11 12 12 11 12 12 12 13 13 14 13 14 14

GFSNGP_con_lsi_144.txt.gz
Lid_Strength_Index
14 13 12 13 13 13 14 14 17 15 14 12 10 10 9 8 8 7 7 7 6 6 5 4 4 4 3 4 4 5 5 7 8 9 10 10 11 12 11 12 12 12 11 11
16 14 14 15 14 13 14 13 13 13 14 9 8 8 8 8 8 8 7 7 6 5 5 5 4 4 5 5 6 6 8 9 9 10 11 12 12 13 13 12 13 12 12 12
18 14 15 18 15 14 13 12 13 15 12 10 10 9 9 8 8 8 7 6 6 6 5 5 5 5 7 7 7 7 9 9 9 10 11 12 12 12 13 14 14 13 13 13
18 19 22 14 10 11 12 12 11 11 10 9 9 9 8 7 7 7 7 6 6 6 6 5 6 7 7 7 8 9 9 9 9 10 11 11 13 13 14 14 14 15 14 14
20 22 16 13 12 13 14 13 10 11 10 9 9 8 9 6 6 6 6 5 7 6 7 7 7 8 8 9 8 8 9 9 9 10 11 12 12 13 13 14 15 15 14 15
19 21 21 14 13 12 11 16 10 10 10 10 9 13 10 7 6 6 6 7 8 8 8 8 8 8 9 9 9 9 9 9 9 9 10 11 11 12 13 14 15 14 15 15
17 18 16 14 14 11 17 16 10 10 10 10 10 9 7 6 6 6 8 8 8 9 9 9 9 9 10 11 11 10 10 10 10 10 10 10 11 12 14 14 15 15 16 15
18 19 21 13 14 15 15 12 11 10 10 10 9 7 6 7 7 8 9 8 9 10 10 11 10 10 12 13 11 11 12 12 11 10 10 10 12 13 14 15 16 16 16 15
18 17 14 14 14 11 11 12 12 11 10 10 9 8 8 8 8 9 9 9 10 11 11 11 11 11 13 14 13 13 14 14 14 13 12 11 13 15 16 15 16 16 15 14
16 14 15 13 11 11 11 12 11 10 10 9 10 9 10 10 10 10 10 10 10 11 13 13 13 13 14 14 14 14 15 15 14 14 14 14 15 15 16 16 15 14 14 14
15 14 13 13 11 11 12 11 11 11 11 11 10 11 10 10 11 11 10 10 12 13 14 14 14 14 14 14 15 15 15 15 15 15 15 16 16 16 16 15 14 14 14 13
17 14 13 13 11 11 12 12 11 12 12 10 11 11 11 12 11 11 11 11 12 12 13 13 14 15 15 15 15 16 16 15 15 15 15 15 15 15 12 12 12 12 12 12
13 11 11 10 10 10 11 11 11 12 12 12 11 11 12 12 12 11 11 11 11 12 12 13 13 14 14 14 14 15 16 15 15 15 16 16 15 14 14 12 11 11 11 11
10 10 12 11 12 10 11 11 10 11 12 12 12 11 11 12 11 11 12 11 11 11 12 12 13 13 13 13 14 14 15 14 15 15 14 14 14 14 13 13 13 13 12 11
10 9 10 10 10 10 10 10 12 12 11 12 11 12 12 12 13 12 12 12 12 12 12 11 12 12 12 13 14 14 15 14 14 14 14 14 14 14 13 13 13 13 12 12
9 9 9 10 10 10 10 10 11 12 12 12 12 12 12 12 13 13 13 13 13 14 13 13 13 12 11 12 12 12 12 12 13 13 13 13 14 14 14 13 13 12 12 13
11 11 10 10 10 10 11 11 11 12 12 12 13 13 13 13 14 14 14 14 14 14 13 13 13 11 10 10 11 11 11 11 12 12 12 13 13 13 13 13 13 12 12 13
9 9 9 10 11 11 11 12 12 12 12 12 12 13 14 14 15 15 14 13 13 13 13 12 11 11 11 11 11 12 12 12 12 12 12 13 13 13 13 12 12 12 12 13
9 10 10 10 11 12 12 12 12 12 12 12 13 14 13 13 13 14 13 13 13 13 13 11 11 11 12 11 11 12 12 12 12 12 12 12 13 13 12 12 12 12 12 13
10 10 10 11 11 11 12 12 12 12 12 12 12 13 13 13 13 13 13 14 14 13 12 12 12 12 12 11 12 12 12 12 13 13 13 13 13 13 12 13 12 12 13 13
12 11 11 11 12 11 11 11 11 11 11 11 12 12 13 13 12 13 13 14 13 12 12 11 12 12 12 12 12 12 12 12 12 13 13 13 12 12 12 12 12 12 13 13
12 11 11 11 11 11 11 11 11 11 11 11 11 12 12 13 12 13 13 13 13 12 12 12 12 13 12 12 12 12 12 12 12 12 12 12 12 12 12 12 12 12 12 12
10 10 10 10 10 11 10 10 10 10 11 11 11 12 12 12 12 13 13 12 12 12 12 12 14 13 13 11 11 11 11 12 12 12 11 11 12 12 12 12 12 12 12 12
11 11 11 11 10 10 11 10 10 10 10 10 10 11 11 12 12 12 11 12 13 12 12 12 13 13 13 11 11 11 11 11 11 11 11 13 11 11 11 11 11 11 11 12
10 10 11 10 10 11 10 10 10 10 10 10 10 10 10 11 11 11 11 12 12 12 12 14 14 13 11 11 11 11 11 11 11 11 11 11 11 11 11 11 11 11 11 11
10 10 10 10 10 11 11 10 10 10 10 10 10 10 10 10 10 11 11 11 11 12 12 12 11 10 10 10 10 10 11 11 10 10 10 10 10 10 10 10 11 11 10 10
10 10 11 11 11 11 10 10 11 11 10 10 10 10 10 10 11 11 11 11 11 11 11 11 11 11 10 10 10 10 10 10 10 10 10 9 10 10 10 10 10 10 10 11

GFSNGP_con_lsi_147.txt.gz
Lid_Strength_Index
12 12 13 13 14 13 14 13 16 13 12 10 8 7 7 6 6 6 5 5 5 4 4 4 4 3 3 3 4 4 6 7 8 9 8 9 10 10 10 9 9 9 9 8
15 13 13 15 13 13 13 13 13 13 13 8 7 6 7 6 6 6 5 5 5 5 4 4 4 4 3 4 5 6 8 9 9 10 10 11 11 12 11 10 10 10 9 9
16 13 14 17 14 14 13 12 12 14 11 8 8 7 7 7 6 6 5 5 6 5 4 4 4 4 5 6 7 8 9 9 10 10 11 11 12 12 12 11 10 10 10 9
16 15 20 14 12 12 13 12 11 11 9 8 8 6 6 5 6 6 5 5 5 5 4 4 4 5 6 7 8 9 9 9 9 11 11 11 11 12 12 11 11 11 10 10
17 17 14 14 14 14 15 15 12 12 10 8 7 7 8 5 5 5 5 5 5 5 5 6 6 6 7 9 9 9 10 10 10 10 10 11 13 13 12 12 12 11 11 10
16 18 20 16 14 12 12 17 13 13 11 9 8 12 9 5 5 5 5 5 6 6 6 7 7 7 9 10 10 10 9 9 9 9 11 12 13 12 12 11 11 11 11 10
17 18 15 14 14 12 18 17 13 12 10 10 10 8 6 5 5 5 6 7 7 8 8 8 7 8 10 10 10 9 9 9 9 10 11 12 12 12 11 11 11 11 11 10
17 18 20 13 15 17 15 13 12 11 10 9 8 7 6 6 6 6 7 8 9 10 9 9 9 10 10 10 9 8 8 9 10 10 10 12 12 12 11 11 11 11 11 11
17 16 13 14 15 14 12 12 11 11 9 7 8 7 6 7 7 7 8 9 10 10 11 11 10 10 10 10 8 9 9 9 10 10 11 11 12 12 12 11 11 12 12 12
16 14 16 15 13 12 10 11 10 9 9 8 9 8 8 8 8 9 10 10 11 12 13 13 11 10 10 10 10 10 10 10 10 11 11 12 12 12 12 12 12 12 12 11
15 14 13 13 13 11 11 11 11 10 10 9 9 10 11 12 12 11 12 12 12 14 14 13 12 12 11 10 10 10 10 10 11 11 12 12 12 12 12 11 12 12 10 10
17 15 14 14 12 11 12 13 12 12 11 10 10 11 11 11 11 12 13 13 13 13 13 13 13 12 12 11 10 10 11 10 11 12 12 12 12 13 14 13 13 12 11 10
14 11 11 11 11 11 12 12 12 12 11 12 11 11 11 12 12 12 13 13 13 14 14 13 13 12 11 11 10 11 11 12 12 12 12 12 12 13 13 12 11 11 11 11
10 10 12 12 12 11 11 11 10 11 11 11 11 11 11 12 11 12 12 13 13 13 13 13 13 13 12 11 11 11 12 12 12 12 12 12 12 11 10 10 11 10 11 10
10 10 10 10 10 11 11 11 12 12 12 11 11 12 12 13 13 13 12 12 12 12 12 13 13 13 12 12 12 12 12 12 12 12 11 10 10 9 9 10 10 10 10 11
9 9 10 11 11 11 11 11 11 12 12 12 12 12 12 11 11 10 10 10 10 11 11 11 12 11 11 11 11 11 12 12 11 10 9 9 9 9 9 10 10 10 10 10
10 11 10 11 11 12 12 11 12 12 11 11 11 11 10 11 11 11 10 10 9 10 10 10 11 10 10 10 9 9 9 9 10 9 9 9 9 9 9 9 9 10 10 11
9 9 9 10 11 11 11 11 11 11 11 11 10 10 11 11 11 11 10 9 10 10 9 9 8 8 8 8 8 8 9 9 9 9 9 9 8 8 8 9 9 10 10 11
9 10 10 10 10 10 10 10 10 10 10 10 11 11 11 11 11 10 9 9 9 10 9 8 9 7 7 8 8 7 8 8 8 9 9 10 8 8 8 9 9 9 9 9
10 9 9 10 10 10 10 10 10 10 10 10 10 10 11 10 10 9 9 10 9 9 8 7 7 7 7 8 9 7 8 8 8 9 9 8 8 8 9 10 9 9 9 9
9 9 9 9 10 9 9 9 10 10 9 9 9 10 9 9 9 8 9 10 9 8 8 8 7 8 8 9 8 8 8 8 8 8 8 8 9 8 8 8 9 8 9 9
9 9 9 9 10 9 8 8 8 8 9 9 9 9 9 9 9 9 8 8 8 11 8 8 8 10 9 11 8 8 8 8 8 7 8 8 8 8 8 8 8 8 8 8
9 8 8 8 9 9 8 8 8 8 9 9 9 9 8 8 8 9 9 9 8 10 8 8 12 13 13 8 8 8 8 8 8 8 7 7 7 7 8 8 8 8 8 8
8 7 7 7 7 8 9 8 8 8 8 8 8 8 8 9 9 8 9 11 13 10 8 10 11 13 11 8 8 8 7 8 8 7 7 9 7 7 7 8 8 8 8 8
8 8 8 8 8 8 7 7 7 7 7 7 8 8 7 7 8 8 8 8 12 9 8 13 12 12 7 7 7 8 8 8 7 7 7 7 7 7 7 7 7 7 7 7
7 7 7 6 7 7 7 7 7 6 7 7 7 7 7 7 7 7 8 9 8 10 7 8 7 7 7 7 7 7 7 8 8 8 7 7 7 7 7 6 6 7 6 6
6 8 7 7 6 6 6 6 6 6 6 6 7 6 7 7 7 8 9 8 8 7 7 7 7 8 7 7 7 7 7 7 8 7 7 6 6 6 6 6 6 6 6 6